Showing default

THEMIS D, 30797

Orbit data source: Space-Track

THEMIS D, 30797 is a payload satellite owned by GSFC (US) in HEO that was launched on Sat, 17 Feb 2007 UTC via a DELTA 7925-10C launch vehicle from the Air Force Eastern Test Range (AFETR). Payload-class satellites include a variety of spacecraft equipped with specific instruments for various scientific and technological missions. These include communications satellites like Starlink; space stations such as the ISS; scientific satellites like the Hubble; Earth observation satellites from companies like Planet Labs, Umbra, and HawkEye 360; GPS; miniature CubeSats for education and research; and military/defense satellites.

Loading next visibility...
Identifier
30797, 2007-004D
Orbit
HEO
Country
Flag of USUS
Related business
Manufacturer
Swales
Mission
Operational Civil Science
Bus & Motor
ATK-A100, Unknown motor
Mass
125 kg wet, 76 kg dry
Launch date (UTC)
2007-02-17 (19 years ago)
Launch vehicle
DELTA 7925-10C
Launch site
Air Force Eastern Test Range (AFETR)
Object type
Payload
Rocket body
Debris
Shape & HBR
Box + 6 Rod, 24.5 m
Radar Cross Section
0.720 m², Medium (>0.1 m² and < 1m²)

Expand to show TLE details & history
Last TLE update: 6 hours ago

TLE from 6 hours ago
0 THEMIS D
1 30797U 07004D   26071.58267631 -.00000203  00000-0  00000-0 0  9997
2 30797   6.7078  84.3686 8355004 216.9249  22.3658  0.87835560 40225
Epoch: 2026-03-12T13:59Z
TLE epoch observation values (Epoch: 2026-03-12T13:59:03.233Z)
Latitude
-1.57986°
Longitude
51.55518°
Altitude
23,711.138 km
Speed
4.223 km/s
True Right ascension
04h 46m 11s
True Declination
-1° 34' 39"
Sunlit
Object was in daylight at epoch
Visualization orbit readout
Latitude
Unknown
Longitude
Unknown
Altitude
Unknown
Speed
Unknown
Apparent Right ascension
Unknown
Apparent Declination
Unknown
Sunlit
N/A
Visualization observer readout
Local Sidereal Time
00:33:07
Azimuth
Unknown
Elevation
Unknown
Doppler factor
Unknown
Orbital elements
Apogee altitude
78,168.482 km
Perigee altitude
1,199.026 km
Semi-major axis
46,061.891 km
Eccentricity
0.8355
Inclination
6.7078°
RAAN
84.3686°
Arg. of periapsis
216.9249°
True anomaly
130.62487°
Mean anomaly
22.3658°
Eccentric anomaly
66.14794°
Mean motion
0.21955 °/min
Orbital period
1,639.73 mins
BSTAR
0
Loading maneuver chart data...
Computing Atmospheric mass density...
Loading historical data...
Loading historical data...
Loading historical data...
Loading historical data...
Loading historical data...
Loading historical data...
Loading historical data...

Documentation

Showing up to 5 results
|